SCP
1 1 1 0 0 0 0 0 0 0 0 0 0 0 0 0 0 0 0 0 0 0 0 1 1 1 1 1 1 0 1 0 0 0 1 1 1 1 1 1 1 1 1
1 1 1 0 0 0 0 0 0 0 0 0 0 0 0 0 0 0 0 0 0 0 0 0 1 1 1 1 1 1 0 0 0 1 1 1 1 1 1 1 1 1 1
1 1 0 0 0 0 0 0 0 0 0 0 0 0 0 0 0 0 0 0 0 0 0 0 0 1 1 1 1 1 1 0 1 1 1 1 1 1 1 1 1 1 1
1 1 0 0 0 0 0 0 0 0 0 0 0 0 0 0 0 0 0 0 0 0 0 0 0 0 1 1 1 0 0 1 1 1 1 1 1 1 1 1 0 0 0
0 0 0 0 0 0 0 0 0 0 0 0 0 0 0 0 0 0 0 0 0 0 0 0 0 0 0 1 1 0 0 0 1 1 1 1 1 1 1 1 0 0 0
0 0 0 0 0 0 0 0 0 0 0 0 0 0 0 0 0 0 0 0 0 0 0 0 0 0 0 0 1 0 0 0 0 1 1 1 1 1 1 1 1 1 1
0 0 0 0 0 0 0 0 0 0 0 0 0 0 0 0 0 0 0 0 0 0 0 0 0 0 0 0 0 0 0 0 1 1 1 1 0 0 1 1 1 1 1
0 0 0 0 0 0 0 0 0 0 0 0 0 0 0 0 0 0 0 0 0 0 0 0 0 0 0 0 0 0 0 0 0 1 1 1 1 0 0 0 1 1 1
0 0 0 0 0 0 0 0 0 0 0 0 0 0 0 0 0 0 0 0 0 0 0 0 0 0 0 0 0 0 0 0 0 0 1 1 1 1 0 0 0 1 1
0 0 0 0 0 0 0 0 0 0 0 0 0 0 0 0 0 0 0 0 0 0 0 0 0 0 0 0 0 0 0 0 0 1 1 1 1 1 1 1 0 0 1
0 0 0 0 0 0 0 0 0 0 0 0 0 0 0 0 0 0 0 0 0 0 0 0 0 0 0 0 0 0 0 0 0 1 1 1 1 1 1 1 1 1 1
0 0 0 0 0 0 0 0 0 0 0 0 0 0 0 0 0 0 0 0 0 0 0 0 0 0 0 0 0 0 0 0 0 1 1 1 1 1 1 1 1 1 1
0 0 0 0 0 0 0 0 0 0 0 0 0 0 0 0 0 0 0 0 0 0 0 0 0 0 0 0 0 0 0 0 0 0 0 0 0 0 0 1 1 1 1
0 0 0 0 0 0 0 0 0 0 0 0 0 0 0 0 0 0 0 0 0 0 0 0 0 0 0 0 0 0 0 0 0 0 0 0 0 0 0 0 0 0 1
0 0 0 0 0 0 0 0 0 0 0 0 0 0 0 0 0 0 0 0 0 0 0 0 0 0 0 0 0 0 0 0 0 0 0 0 0 0 0 0 0 0 0
0 0 0 0 0 0 0 0 0 0 0 0 0 0 0 0 0 0 0 0 0 0 0 0 0 0 0 0 0 0 0 0 0 0 0 0 0 0 0 0 0 0 0
0 0 0 0 0 0 0 0 0 0 0 0 0 0 0 0 0 0 0 0 0 0 0 0 0 0 0 0 0 0 0 0 0 0 0 0 0 0 0 0 0 0 0
0 0 0 0 0 0 0 0 0 0 0 0 0 0 0 0 0 0 0 0 0 0 0 0 0 0 0 0 0 0 0 0 0 0 0 0 0 0 0 0 0 0 0
0 0 0 0 0 0 0 0 0 0 0 0 0 0 0 0 0 0 0 0 0 0 0 0 0 0 0 0 0 0 0 0 0 0 0 0 0 0 0 0 0 0 0
0 0 0 0 0 0 0 0 0 0 0 0 0 0 0 0 0 0 0 0 0 0 0 0 0 0 0 0 0 0 0 0 0 0 0 0 0 0 0 0 0 0 0
0 0 0 0 0 0 0 0 0 0 0 0 0 0 0 0 0 0 0 0 0 0 0 0 0 0 0 0 0 0 0 0 0 0 0 0 0 0 0 0 0 0 0
0 0 0 0 0 0 0 0 0 0 0 0 0 0 0 0 0 0 0 0 0 0 0 0 0 0 0 0 0 0 0 0 0 0 0 0 0 0 0 0 0 0 0
0 0 0 0 0 0 0 0 0 0 0 0 0 0 0 0 0 0 0 0 0 0 0 0 0 0 0 0 0 0 0 0 0 0 0 0 0 0 0 0 0 0 0
0 0 0 0 0 0 0 0 0 0 0 0 0 0 0 0 0 0 0 0 0 0 0 0 0 0 0 0 0 0 0 0 0 0 0 0 0 0 0 0 0 0 0
0 0 0 0 0 0 0 0 0 0 0 0 0 0 0 0 0 0 0 0 0 0 0 0 0 0 0 0 0 0 0 0 0 0 0 0 0 0 0 0 0 0 0
0 0 0 0 0 0 0 0 0 0 0 0 0 0 0 0 0 0 0 0 0 0 0 0 0 0 0 0 0 0 0 0 0 0 0 0 0 0 0 0 0 0 0
Wind_Speed
2 2 2 2 2 2 2 2 3 3 3 4 4 4 4 4 3 3 2 5 5 5 6 5 6 6 6 6 5 6 6 5 5 5 5 4 4 4 5 5 5 5 5
2 2 2 2 2 2 2 2 3 3 2 3 4 3 3 3 3 3 3 4 6 6 6 6 5 5 6 6 5 5 5 5 4 3 3 3 3 3 3 4 4 3 3
3 2 2 2 1 2 2 2 3 3 3 3 4 3 3 3 3 3 3 3 3 6 7 6 5 5 5 5 4 4 4 4 3 3 3 3 2 2 2 2 2 2 2
3 3 2 2 2 2 2 2 3 3 3 3 2 2 2 2 3 3 3 3 3 3 5 6 5 4 4 4 4 3 3 4 3 2 2 1 1 1 2 1 1 1 2
4 3 2 2 2 2 2 2 3 2 3 2 2 2 2 2 2 3 3 3 3 3 3 5 6 6 5 3 3 3 3 3 3 3 2 1 1 1 1 1 1 1 1
3 3 3 3 3 3 3 3 3 3 2 2 2 3 2 2 2 3 3 2 3 3 3 3 3 4 7 6 4 3 2 2 3 3 2 2 2 2 2 3 2 2 2
3 3 3 3 3 3 3 3 3 3 3 2 2 2 2 2 3 2 2 2 3 3 3 3 2 2 3 6 6 5 4 4 3 3 3 3 2 3 3 3 3 3 4
2 3 3 2 2 3 3 3 3 2 2 2 2 2 1 2 2 2 2 2 3 2 3 3 2 2 2 2 4 6 5 5 5 5 5 4 3 4 4 4 4 5 5
3 3 3 3 2 2 2 2 3 3 1 1 2 2 2 1 2 2 2 1 2 2 2 2 3 2 2 2 2 4 6 6 6 6 5 5 4 4 4 5 5 5 5
3 2 2 2 2 2 2 2 2 2 2 1 1 2 1 1 1 2 2 2 2 2 2 2 2 2 2 1 3 5 6 6 6 6 6 6 6 6 6 5 5 5 6
2 2 2 2 2 2 2 2 2 2 1 1 0 0 1 1 0 1 2 3 3 2 2 2 2 2 2 1 1 3 6 6 6 7 7 7 7 7 7 7 8 7 7
1 1 1 1 1 1 1 1 1 2 1 1 1 0 0 0 0 0 1 2 3 3 3 2 2 2 1 1 2 5 6 7 7 8 8 8 8 8 8 8 8 8 9
1 0 0 1 1 1 1 1 1 1 1 1 1 0 0 1 1 1 1 2 3 3 3 2 2 1 1 1 2 5 5 7 8 8 9 8 8 8 9 9 8 8 9
1 1 1 1 0 1 1 1 1 1 1 1 1 1 1 1 1 1 1 1 2 3 3 3 2 2 2 1 3 5 4 7 8 9 9 9 9 9 9 9 9 8 8
1 1 1 1 0 0 1 1 0 1 1 1 1 1 1 1 1 1 1 2 2 3 4 3 2 2 3 3 4 3 3 7 9 9 10 9 9 9 9 10 9 8 8
1 1 1 0 0 0 0 1 1 1 1 1 1 1 1 1 1 1 2 2 2 3 4 3 3 3 4 4 5 3 4 8 9 9 10 10 9 9 9 10 10 9 8
2 1 1 1 1 0 1 1 1 1 2 2 2 2 3 2 2 2 2 2 2 3 6 6 4 4 4 5 4 3 4 4 5 9 10 10 10 10 10 10 10 9 9
2 2 2 1 1 1 1 2 2 2 2 3 3 3 3 3 3 3 2 3 3 3 4 7 5 4 5 5 5 4 4 4 5 8 9 10 10 10 10 10 10 10 9
2 2 2 2 2 2 2 2 2 3 3 3 3 4 4 4 4 3 3 3 3 4 4 5 6 4 4 4 5 5 5 4 5 6 8 9 10 11 10 10 10 9 9
2 2 2 2 2 3 3 3 2 2 3 3 4 4 4 5 5 5 4 4 4 4 4 5 5 5 4 4 4 4 5 4 5 5 7 8 9 10 10 10 10 10 10
3 2 2 2 2 3 3 3 3 3 3 4 4 4 5 6 7 7 6 5 5 5 4 5 6 5 5 4 5 4 5 5 5 4 5 5 5 5 6 9 10 10 10
2 2 2 3 3 3 5 6 5 4 4 4 5 5 5 6 8 10 11 11 9 7 6 6 6 7 7 6 5 5 5 5 6 3 4 6 4 6 6 5 9 11 11
2 2 3 3 4 5 7 7 7 5 5 5 5 5 5 6 8 5 8 10 10 12 12 9 9 9 8 7 6 7 7 7 8 4 4 7 5 7 6 7 12 12 12
3 3 3 4 4 5 7 8 8 5 5 6 6 6 7 7 6 6 6 7 7 8 9 8 9 9 9 7 7 8 8 8 7 5 4 7 5 6 6 6 11 12 12
3 3 4 4 4 5 7 8 7 4 5 6 6 6 7 7 10 11 8 7 8 7 8 11 12 12 14 14 11 6 6 6 8 6 4 5 5 5 5 6 7 11 12
3 3 4 4 4 5 7 8 8 4 5 5 5 6 9 10 11 12 7 6 8 8 7 7 8 9 10 11 13 9 7 7 7 6 4 4 5 4 5 5 4 5 7
Wind_Direction
96 86 77 68 60 56 66 69 66 67 66 66 66 63 56 48 44 34 25 42 51 59 69 75 80 80 77 74 70 69 62 61 66 64 66 74 81 85 85 88 94 92 94
99 100 87 70 59 55 63 77 77 73 69 74 67 59 56 52 49 41 29 27 37 47 57 67 71 73 77 71 67 64 59 53 61 63 67 77 84 87 89 85 92 99 101
90 95 94 77 58 61 70 77 71 74 71 64 58 51 53 50 51 44 39 30 23 32 39 56 64 59 65 66 65 61 58 48 49 52 58 74 80 89 94 91 86 97 108
79 91 89 74 52 66 71 85 78 79 67 62 53 41 38 43 50 50 47 35 26 18 20 34 42 47 50 53 53 51 59 52 39 35 41 54 75 98 108 109 105 103 112
72 80 86 74 72 72 63 74 71 82 81 62 56 49 36 37 40 52 48 38 31 24 15 21 22 25 24 33 37 39 43 43 34 23 8 351 270 220 202 221 218 209 170
71 75 75 68 78 80 66 68 79 67 79 75 66 46 32 32 43 50 42 34 25 22 18 16 12 10 12 14 16 13 14 20 22 9 349 321 270 249 242 243 243 245 241
72 79 80 74 74 79 79 85 88 76 51 52 66 36 15 26 42 37 30 36 18 8 17 16 13 14 359 6 11 10 6 357 349 341 338 321 287 258 253 257 254 251 252
75 82 85 86 79 83 79 79 84 85 56 34 84 94 27 356 360 6 9 20 14 7 12 8 6 10 358 350 358 4 355 351 348 345 343 320 296 269 257 259 258 258 257
71 73 83 90 85 94 100 90 87 93 108 17 42 104 128 211 304 319 330 345 356 357 352 356 360 354 351 348 349 356 357 353 344 339 335 331 321 303 279 264 260 261 260
77 69 79 91 94 91 102 107 82 84 113 104 10 28 74 157 168 296 306 318 322 326 327 338 334 335 329 331 349 356 355 350 345 340 332 326 314 303 289 280 273 270 266
78 73 77 81 90 85 98 102 82 83 100 129 120 22 41 24 84 182 277 305 317 303 309 301 295 311 307 313 317 338 352 343 335 329 323 320 313 301 296 285 276 272 271
84 66 72 77 86 94 110 116 112 106 108 119 95 84 139 172 245 242 262 297 299 296 304 289 278 285 292 318 328 342 342 336 330 321 316 312 316 308 301 296 286 274 270
143 167 95 108 108 103 108 102 115 145 146 150 175 227 244 242 225 240 256 285 292 294 295 280 265 283 293 296 316 336 330 329 326 321 315 312 313 314 306 298 294 287 279
181 176 163 128 111 122 106 110 129 194 176 184 241 236 265 274 253 241 227 257 297 291 276 271 280 263 284 277 311 327 316 319 316 314 311 312 314 312 310 300 294 293 291
160 152 149 157 180 157 168 164 199 230 209 218 227 235 256 270 266 257 236 217 222 268 275 266 272 286 303 298 299 291 297 308 311 308 306 304 306 306 304 304 298 295 294
140 151 149 181 212 268 250 203 227 238 232 247 236 230 256 264 263 260 246 248 236 242 264 264 268 290 294 292 289 282 283 303 302 302 301 300 300 301 302 303 296 295 294
163 181 190 216 239 269 287 254 250 239 236 251 252 242 253 254 256 257 251 252 252 248 263 278 278 283 283 287 285 272 274 272 282 294 296 297 297 297 297 297 296 294 293
186 195 201 216 239 258 252 242 256 264 247 246 250 247 256 259 256 251 245 251 252 248 256 276 285 283 277 280 279 273 281 281 276 284 289 294 293 293 292 292 291 291 291
202 204 206 218 235 249 253 253 247 256 259 258 253 247 250 247 254 255 253 257 261 265 256 264 278 280 280 283 290 282 277 273 279 281 286 287 288 289 289 290 288 288 288
204 211 222 229 239 251 255 256 259 261 260 264 263 258 254 246 249 247 252 252 257 262 260 261 270 276 278 280 281 278 282 273 276 282 283 281 283 286 288 288 285 285 283
219 222 232 243 246 252 249 249 251 254 254 260 262 260 261 260 258 257 258 250 248 254 259 262 267 272 271 278 277 273 273 281 271 263 275 273 275 272 276 280 278 278 278
217 220 231 237 244 256 261 262 263 256 255 255 261 264 264 261 260 265 267 265 256 252 254 260 266 262 268 266 273 268 272 278 278 249 258 270 264 269 269 264 275 277 275
222 229 236 236 245 252 257 261 265 265 256 254 255 258 264 264 269 263 268 273 269 263 258 256 258 260 265 262 267 266 261 261 265 268 267 272 262 263 265 269 275 272 272
226 233 243 242 248 255 262 265 268 264 257 255 253 252 254 260 261 263 264 266 265 265 262 258 255 260 262 261 258 260 261 267 271 265 249 267 267 265 270 263 268 269 271
243 243 248 244 247 260 262 266 268 256 255 256 254 253 252 254 259 265 265 265 271 272 273 269 266 268 268 268 265 268 265 264 268 263 238 258 270 275 270 263 263 264 265
247 251 260 255 251 256 259 265 266 253 255 261 262 260 258 260 263 266 260 256 264 270 275 281 279 277 274 268 264 254 251 257 265 267 237 245 266 276 283 267 255 254 256